Time,TemperatureF,DewpointF,PressureIn,WindDirection,WindDirectionDegrees,WindSpeedMPH,WindSpeedGustMPH,Humidity,HourlyPrecipIn,Conditions,Clouds,dailyrainin,SolarRadiationWatts/m^2,SoftwareType,DateUTC
2013-04-29 00:04:00,65.0,47.9,29.85,NNE,23,2.0,-999.0,54,0.00,,,0.00,0,Wunderground v.1.15,2013-04-28 14:04:00,
2013-04-29 00:09:00,65.0,47.9,29.85,NNE,23,2.0,-999.0,54,0.00,,,0.00,0,Wunderground v.1.15,2013-04-28 14:09:00,
2013-04-29 00:14:00,65.0,47.9,29.85,NNE,23,2.0,-999.0,54,0.00,,,0.00,0,Wunderground v.1.15,2013-04-28 14:14:00,
2013-04-29 00:19:00,65.0,47.9,29.85,NNE,23,2.0,-999.0,54,0.00,,,0.00,0,Wunderground v.1.15,2013-04-28 14:19:00,
2013-04-29 00:24:00,65.0,47.9,29.85,NNE,23,2.0,-999.0,54,0.00,,,0.00,0,Wunderground v.1.15,2013-04-28 14:24:00,
2013-04-29 00:29:00,65.0,47.9,29.85,NNE,23,2.0,-999.0,54,0.00,,,0.00,0,Wunderground v.1.15,2013-04-28 14:29:00,
2013-04-29 00:34:00,65.0,47.9,29.85,NNE,23,2.0,-999.0,54,0.00,,,0.00,0,Wunderground v.1.15,2013-04-28 14:34:00,
2013-04-29 00:39:00,65.0,47.9,29.85,NNE,23,2.0,-999.0,54,0.00,,,0.00,0,Wunderground v.1.15,2013-04-28 14:39:00,
2013-04-29 00:44:00,65.0,47.9,29.85,NNE,23,2.0,-999.0,54,0.00,,,0.00,0,Wunderground v.1.15,2013-04-28 14:44:00,
2013-04-29 00:49:00,64.5,47.5,29.85,NNE,23,2.0,-999.0,54,0.00,,,0.00,0,Wunderground v.1.15,2013-04-28 14:49:00,
2013-04-29 00:54:00,64.5,47.5,29.85,NNE,23,2.0,-999.0,54,0.00,,,0.00,0,Wunderground v.1.15,2013-04-28 14:54:00,
2013-04-29 00:59:00,64.5,47.5,29.85,NNE,23,2.0,-999.0,54,0.00,,,0.00,0,Wunderground v.1.15,2013-04-28 14:59:00,
2013-04-29 01:04:00,64.5,47.5,29.85,NNE,23,2.0,-999.0,54,0.00,,,0.00,0,Wunderground v.1.15,2013-04-28 15:04:00,
2013-04-29 01:09:00,64.5,47.5,29.85,NNE,23,2.0,-999.0,54,0.00,,,0.00,0,Wunderground v.1.15,2013-04-28 15:09:00,
2013-04-29 01:14:00,64.5,47.5,29.85,NNE,23,2.0,-999.0,54,0.00,,,0.00,0,Wunderground v.1.15,2013-04-28 15:14:00,
2013-04-29 01:19:00,64.1,47.6,29.85,North,0,2.0,-999.0,55,0.00,,,0.00,0,Wunderground v.1.15,2013-04-28 15:19:00,
2013-04-29 01:24:00,64.1,47.6,29.85,North,0,2.0,-999.0,55,0.00,,,0.00,0,Wunderground v.1.15,2013-04-28 15:24:00,
2013-04-29 01:29:00,64.1,47.6,29.85,North,0,2.0,-999.0,55,0.00,,,0.00,0,Wunderground v.1.15,2013-04-28 15:29:00,
2013-04-29 01:34:00,64.1,47.6,29.85,North,0,2.0,-999.0,55,0.00,,,0.00,0,Wunderground v.1.15,2013-04-28 15:34:00,
2013-04-29 01:39:00,64.1,47.6,29.85,North,0,2.0,-999.0,55,0.00,,,0.00,0,Wunderground v.1.15,2013-04-28 15:39:00,
2013-04-29 01:44:00,64.1,47.6,29.85,North,0,2.0,-999.0,55,0.00,,,0.00,0,Wunderground v.1.15,2013-04-28 15:44:00,
2013-04-29 01:49:00,63.6,47.1,29.85,NNE,23,2.0,-999.0,55,0.00,,,0.00,0,Wunderground v.1.15,2013-04-28 15:49:00,
2013-04-29 01:54:00,63.6,47.1,29.85,NNE,23,2.0,-999.0,55,0.00,,,0.00,0,Wunderground v.1.15,2013-04-28 15:54:00,
2013-04-29 01:59:00,63.6,47.1,29.85,NNE,23,2.0,-999.0,55,0.00,,,0.00,0,Wunderground v.1.15,2013-04-28 15:59:00,
2013-04-29 02:04:00,63.6,47.1,29.85,NNE,23,2.0,-999.0,55,0.00,,,0.00,0,Wunderground v.1.15,2013-04-28 16:04:00,
2013-04-29 02:09:00,63.6,47.1,29.85,NNE,23,2.0,-999.0,55,0.00,,,0.00,0,Wunderground v.1.15,2013-04-28 16:09:00,
2013-04-29 02:14:00,63.6,47.1,29.85,NNE,23,2.0,-999.0,55,0.00,,,0.00,0,Wunderground v.1.15,2013-04-28 16:14:00,
2013-04-29 02:19:00,63.5,47.0,29.85,NNE,23,3.0,-999.0,55,0.00,,,0.00,0,Wunderground v.1.15,2013-04-28 16:19:00,
2013-04-29 02:24:00,63.5,47.0,29.85,NNE,23,3.0,-999.0,55,0.00,,,0.00,0,Wunderground v.1.15,2013-04-28 16:24:00,
2013-04-29 02:29:00,63.5,47.0,29.85,NNE,23,3.0,-999.0,55,0.00,,,0.00,0,Wunderground v.1.15,2013-04-28 16:29:00,
2013-04-29 02:34:00,63.5,47.0,29.85,NNE,23,3.0,-999.0,55,0.00,,,0.00,0,Wunderground v.1.15,2013-04-28 16:34:00,
2013-04-29 02:39:00,63.5,47.0,29.85,NNE,23,3.0,-999.0,55,0.00,,,0.00,0,Wunderground v.1.15,2013-04-28 16:39:00,
2013-04-29 02:44:00,63.5,47.0,29.85,NNE,23,3.0,-999.0,55,0.00,,,0.00,0,Wunderground v.1.15,2013-04-28 16:44:00,
2013-04-29 02:49:00,63.2,46.8,29.85,NNE,23,4.0,-999.0,55,0.00,,,0.00,0,Wunderground v.1.15,2013-04-28 16:49:00,
2013-04-29 02:54:00,63.2,46.8,29.85,NNE,23,4.0,-999.0,55,0.00,,,0.00,0,Wunderground v.1.15,2013-04-28 16:54:00,
2013-04-29 02:59:00,63.2,46.8,29.85,NNE,23,4.0,-999.0,55,0.00,,,0.00,0,Wunderground v.1.15,2013-04-28 16:59:00,
2013-04-29 03:04:00,63.2,46.8,29.85,NNE,23,4.0,-999.0,55,0.00,,,0.00,0,Wunderground v.1.15,2013-04-28 17:04:00,
2013-04-29 03:09:00,63.2,46.8,29.85,NNE,23,4.0,-999.0,55,0.00,,,0.00,0,Wunderground v.1.15,2013-04-28 17:09:00,
2013-04-29 03:14:00,63.2,46.8,29.85,NNE,23,4.0,-999.0,55,0.00,,,0.00,0,Wunderground v.1.15,2013-04-28 17:14:00,
2013-04-29 03:19:00,62.5,46.6,29.85,NNE,23,3.0,-999.0,56,0.00,,,0.00,0,Wunderground v.1.15,2013-04-28 17:19:00,
2013-04-29 03:24:00,62.5,46.6,29.85,NNE,23,3.0,-999.0,56,0.00,,,0.00,0,Wunderground v.1.15,2013-04-28 17:24:00,
2013-04-29 03:29:00,62.5,46.6,29.85,NNE,23,3.0,-999.0,56,0.00,,,0.00,0,Wunderground v.1.15,2013-04-28 17:29:00,
2013-04-29 03:34:00,62.5,46.6,29.85,NNE,23,3.0,-999.0,56,0.00,,,0.00,0,Wunderground v.1.15,2013-04-28 17:34:00,
2013-04-29 03:39:00,62.5,46.6,29.85,NNE,23,3.0,-999.0,56,0.00,,,0.00,0,Wunderground v.1.15,2013-04-28 17:39:00,
2013-04-29 03:44:00,62.5,46.6,29.85,NNE,23,3.0,-999.0,56,0.00,,,0.00,0,Wunderground v.1.15,2013-04-28 17:44:00,
2013-04-29 03:49:00,62.4,45.5,29.84,NNE,23,3.0,-999.0,54,0.00,,,0.00,0,Wunderground v.1.15,2013-04-28 17:49:00,
2013-04-29 03:54:00,62.4,45.5,29.84,NNE,23,3.0,-999.0,54,0.00,,,0.00,0,Wunderground v.1.15,2013-04-28 17:54:00,
2013-04-29 03:59:00,62.4,45.5,29.84,NNE,23,3.0,-999.0,54,0.00,,,0.00,0,Wunderground v.1.15,2013-04-28 17:59:00,
2013-04-29 04:04:00,62.4,45.5,29.84,NNE,23,3.0,-999.0,54,0.00,,,0.00,0,Wunderground v.1.15,2013-04-28 18:04:00,
2013-04-29 04:09:00,62.4,45.5,29.84,NNE,23,3.0,-999.0,54,0.00,,,0.00,0,Wunderground v.1.15,2013-04-28 18:09:00,
2013-04-29 04:14:00,62.4,45.5,29.84,NNE,23,3.0,-999.0,54,0.00,,,0.00,0,Wunderground v.1.15,2013-04-28 18:14:00,
2013-04-29 04:19:00,62.6,45.2,29.84,NNE,23,3.0,-999.0,53,0.00,,,0.00,0,Wunderground v.1.15,2013-04-28 18:19:00,
2013-04-29 04:24:00,62.6,45.2,29.84,NNE,23,3.0,-999.0,53,0.00,,,0.00,0,Wunderground v.1.15,2013-04-28 18:24:00,
2013-04-29 04:29:00,62.6,45.2,29.84,NNE,23,3.0,-999.0,53,0.00,,,0.00,0,Wunderground v.1.15,2013-04-28 18:29:00,
2013-04-29 04:34:00,62.6,45.2,29.84,NNE,23,3.0,-999.0,53,0.00,,,0.00,0,Wunderground v.1.15,2013-04-28 18:34:00,
2013-04-29 04:39:00,62.6,45.2,29.84,NNE,23,3.0,-999.0,53,0.00,,,0.00,0,Wunderground v.1.15,2013-04-28 18:39:00,
2013-04-29 04:44:00,62.6,45.2,29.84,NNE,23,3.0,-999.0,53,0.00,,,0.00,0,Wunderground v.1.15,2013-04-28 18:44:00,
2013-04-29 04:49:00,62.3,44.9,27.47,NE,45,3.0,-999.0,53,0.00,,,0.00,0,Wunderground v.1.15,2013-04-28 18:49:00,
2013-04-29 04:54:00,62.3,44.9,27.47,NE,45,3.0,-999.0,53,0.00,,,0.00,0,Wunderground v.1.15,2013-04-28 18:54:00,
2013-04-29 04:59:00,62.3,44.9,27.47,NE,45,3.0,-999.0,53,0.00,,,0.00,0,Wunderground v.1.15,2013-04-28 18:59:00,
2013-04-29 05:04:00,62.3,44.9,27.47,NE,45,3.0,-999.0,53,0.00,,,0.00,0,Wunderground v.1.15,2013-04-28 19:04:00,
2013-04-29 05:09:00,62.3,44.9,27.47,NE,45,3.0,-999.0,53,0.00,,,0.00,0,Wunderground v.1.15,2013-04-28 19:09:00,
2013-04-29 05:14:00,62.3,44.9,27.47,NE,45,3.0,-999.0,53,0.00,,,0.00,0,Wunderground v.1.15,2013-04-28 19:14:00,
2013-04-29 05:19:00,62.2,44.9,22.87,NNE,23,3.0,-999.0,53,0.00,,,0.00,0,Wunderground v.1.15,2013-04-28 19:19:00,
2013-04-29 05:24:00,62.2,44.9,22.87,NNE,23,3.0,-999.0,53,0.00,,,0.00,0,Wunderground v.1.15,2013-04-28 19:24:00,
2013-04-29 05:29:00,62.2,44.9,22.87,NNE,23,3.0,-999.0,53,0.00,,,0.00,0,Wunderground v.1.15,2013-04-28 19:29:00,
2013-04-29 05:34:00,62.2,44.9,22.87,NNE,23,3.0,-999.0,53,0.00,,,0.00,0,Wunderground v.1.15,2013-04-28 19:34:00,
2013-04-29 05:39:00,62.2,44.9,22.87,NNE,23,3.0,-999.0,53,0.00,,,0.00,0,Wunderground v.1.15,2013-04-28 19:39:00,
2013-04-29 05:44:00,62.2,44.9,22.87,NNE,23,3.0,-999.0,53,0.00,,,0.00,0,Wunderground v.1.15,2013-04-28 19:44:00,
2013-04-29 05:49:00,62.4,44.0,22.87,NNE,23,3.0,-999.0,51,0.00,,,0.00,0,Wunderground v.1.15,2013-04-28 19:49:00,
2013-04-29 05:54:00,62.4,44.0,22.87,NNE,23,3.0,-999.0,51,0.00,,,0.00,0,Wunderground v.1.15,2013-04-28 19:54:00,
2013-04-29 05:59:00,62.4,44.0,22.87,NNE,23,3.0,-999.0,51,0.00,,,0.00,0,Wunderground v.1.15,2013-04-28 19:59:00,
2013-04-29 06:04:00,62.4,44.0,22.87,NNE,23,3.0,-999.0,51,0.00,,,0.00,0,Wunderground v.1.15,2013-04-28 20:04:00,
2013-04-29 06:09:00,62.4,44.0,22.87,NNE,23,3.0,-999.0,51,0.00,,,0.00,0,Wunderground v.1.15,2013-04-28 20:09:00,
2013-04-29 06:14:00,62.4,44.0,22.87,NNE,23,3.0,-999.0,51,0.00,,,0.00,0,Wunderground v.1.15,2013-04-28 20:14:00,
2013-04-29 06:19:00,62.7,43.8,22.87,NNE,23,3.0,-999.0,50,0.00,,,0.00,1,Wunderground v.1.15,2013-04-28 20:19:00,
2013-04-29 06:24:00,62.7,43.8,22.87,NNE,23,3.0,-999.0,50,0.00,,,0.00,1,Wunderground v.1.15,2013-04-28 20:24:00,
2013-04-29 06:29:00,62.7,43.8,22.87,NNE,23,3.0,-999.0,50,0.00,,,0.00,1,Wunderground v.1.15,2013-04-28 20:29:00,
2013-04-29 06:34:00,62.7,43.8,22.87,NNE,23,3.0,-999.0,50,0.00,,,0.00,1,Wunderground v.1.15,2013-04-28 20:34:00,
2013-04-29 06:39:00,62.7,43.8,22.87,NNE,23,3.0,-999.0,50,0.00,,,0.00,1,Wunderground v.1.15,2013-04-28 20:39:00,
2013-04-29 06:44:00,62.7,43.8,22.87,NNE,23,3.0,-999.0,50,0.00,,,0.00,1,Wunderground v.1.15,2013-04-28 20:44:00,
2013-04-29 06:49:00,62.9,44.5,22.87,NNE,23,2.0,-999.0,51,0.00,,,0.00,14,Wunderground v.1.15,2013-04-28 20:49:00,
2013-04-29 06:54:00,62.9,44.5,22.87,NNE,23,2.0,-999.0,51,0.00,,,0.00,14,Wunderground v.1.15,2013-04-28 20:54:00,
2013-04-29 06:59:00,62.9,44.5,22.87,NNE,23,2.0,-999.0,51,0.00,,,0.00,14,Wunderground v.1.15,2013-04-28 20:59:00,
2013-04-29 07:04:00,62.9,44.5,22.87,NNE,23,2.0,-999.0,51,0.00,,,0.00,14,Wunderground v.1.15,2013-04-28 21:04:00,
2013-04-29 07:09:00,62.9,44.5,22.87,NNE,23,2.0,-999.0,51,0.00,,,0.00,14,Wunderground v.1.15,2013-04-28 21:09:00,
2013-04-29 07:14:00,62.9,44.5,22.87,NNE,23,2.0,-999.0,51,0.00,,,0.00,14,Wunderground v.1.15,2013-04-28 21:14:00,
2013-04-29 07:19:00,63.2,44.8,22.87,NNE,23,2.0,-999.0,51,0.00,,,0.00,49,Wunderground v.1.15,2013-04-28 21:19:00,
2013-04-29 07:24:00,63.2,44.8,22.87,NNE,23,2.0,-999.0,51,0.00,,,0.00,49,Wunderground v.1.15,2013-04-28 21:24:00,
2013-04-29 07:29:00,63.2,44.8,22.87,NNE,23,2.0,-999.0,51,0.00,,,0.00,49,Wunderground v.1.15,2013-04-28 21:29:00,
2013-04-29 07:34:00,63.2,44.8,22.87,NNE,23,2.0,-999.0,51,0.00,,,0.00,49,Wunderground v.1.15,2013-04-28 21:34:00,
2013-04-29 07:39:00,63.2,44.8,22.87,NNE,23,2.0,-999.0,51,0.00,,,0.00,49,Wunderground v.1.15,2013-04-28 21:39:00,
2013-04-29 07:44:00,63.2,44.8,22.87,NNE,23,2.0,-999.0,51,0.00,,,0.00,49,Wunderground v.1.15,2013-04-28 21:44:00,
2013-04-29 07:49:00,65.7,46.0,29.23,NNE,23,2.0,-999.0,49,0.00,,,0.00,207,Wunderground v.1.15,2013-04-28 21:49:00,
2013-04-29 07:54:00,65.7,46.0,29.23,NNE,23,2.0,-999.0,49,0.00,,,0.00,207,Wunderground v.1.15,2013-04-28 21:54:00,
2013-04-29 07:59:00,65.7,46.0,29.23,NNE,23,2.0,-999.0,49,0.00,,,0.00,207,Wunderground v.1.15,2013-04-28 21:59:00,
2013-04-29 08:04:00,65.7,46.0,29.23,NNE,23,2.0,-999.0,49,0.00,,,0.00,207,Wunderground v.1.15,2013-04-28 22:04:00,
2013-04-29 08:09:00,65.7,46.0,29.23,NNE,23,2.0,-999.0,49,0.00,,,0.00,207,Wunderground v.1.15,2013-04-28 22:09:00,
2013-04-29 08:14:00,65.7,46.0,29.23,NNE,23,2.0,-999.0,49,0.00,,,0.00,207,Wunderground v.1.15,2013-04-28 22:14:00,
2013-04-29 08:19:00,68.4,47.4,29.23,NNW,338,2.0,-999.0,47,0.00,,,0.00,302,Wunderground v.1.15,2013-04-28 22:19:00,
2013-04-29 08:24:00,68.4,47.4,29.23,NNW,338,2.0,-999.0,47,0.00,,,0.00,302,Wunderground v.1.15,2013-04-28 22:24:00,
2013-04-29 08:29:00,68.4,47.4,29.23,NNW,338,2.0,-999.0,47,0.00,,,0.00,302,Wunderground v.1.15,2013-04-28 22:29:00,
2013-04-29 08:34:00,68.4,47.4,29.23,NNW,338,2.0,-999.0,47,0.00,,,0.00,302,Wunderground v.1.15,2013-04-28 22:34:00,
2013-04-29 08:39:00,68.4,47.4,29.23,NNW,338,2.0,-999.0,47,0.00,,,0.00,302,Wunderground v.1.15,2013-04-28 22:39:00,
2013-04-29 08:44:00,68.4,47.4,29.23,NNW,338,2.0,-999.0,47,0.00,,,0.00,302,Wunderground v.1.15,2013-04-28 22:44:00,
2013-04-29 08:49:00,70.2,47.3,29.23,NNW,338,2.0,-999.0,44,0.00,,,0.00,388,Wunderground v.1.15,2013-04-28 22:49:00,
2013-04-29 08:54:00,70.2,47.3,29.23,NNW,338,2.0,-999.0,44,0.00,,,0.00,388,Wunderground v.1.15,2013-04-28 22:54:00,
2013-04-29 08:59:00,70.2,47.3,29.23,NNW,338,2.0,-999.0,44,0.00,,,0.00,388,Wunderground v.1.15,2013-04-28 22:59:00,
2013-04-29 09:04:00,70.2,47.3,29.23,NNW,338,2.0,-999.0,44,0.00,,,0.00,388,Wunderground v.1.15,2013-04-28 23:04:00,
2013-04-29 09:09:00,70.2,47.3,29.23,NNW,338,2.0,-999.0,44,0.00,,,0.00,388,Wunderground v.1.15,2013-04-28 23:09:00,
2013-04-29 09:14:00,70.2,47.3,29.23,NNW,338,2.0,-999.0,44,0.00,,,0.00,388,Wunderground v.1.15,2013-04-28 23:14:00,
2013-04-29 09:19:00,72.8,49.6,29.23,NNW,338,1.0,-999.0,44,0.00,,,0.00,465,Wunderground v.1.15,2013-04-28 23:19:00,
2013-04-29 09:24:00,72.8,49.6,29.23,NNW,338,1.0,-999.0,44,0.00,,,0.00,465,Wunderground v.1.15,2013-04-28 23:24:00,
2013-04-29 09:29:00,72.8,49.6,29.23,NNW,338,1.0,-999.0,44,0.00,,,0.00,465,Wunderground v.1.15,2013-04-28 23:29:00,
2013-04-29 09:34:00,72.8,49.6,29.23,NNW,338,1.0,-999.0,44,0.00,,,0.00,465,Wunderground v.1.15,2013-04-28 23:34:00,
2013-04-29 09:39:00,72.8,49.6,29.23,NNW,338,1.0,-999.0,44,0.00,,,0.00,465,Wunderground v.1.15,2013-04-28 23:39:00,
2013-04-29 09:44:00,72.8,49.6,29.23,NNW,338,1.0,-999.0,44,0.00,,,0.00,465,Wunderground v.1.15,2013-04-28 23:44:00,
2013-04-29 09:49:00,73.6,52.7,29.23,ESE,113,0.0,-999.0,48,0.00,,,0.00,521,Wunderground v.1.15,2013-04-28 23:49:00,
2013-04-29 09:54:00,73.6,52.7,29.23,ESE,113,0.0,-999.0,48,0.00,,,0.00,521,Wunderground v.1.15,2013-04-28 23:54:00,
2013-04-29 09:59:00,73.6,52.7,29.23,ESE,113,0.0,-999.0,48,0.00,,,0.00,521,Wunderground v.1.15,2013-04-28 23:59:00,
2013-04-29 10:04:00,73.6,52.7,29.23,ESE,113,0.0,-999.0,48,0.00,,,0.00,521,Wunderground v.1.15,2013-04-29 00:04:00,
2013-04-29 10:09:00,73.6,52.7,29.23,ESE,113,0.0,-999.0,48,0.00,,,0.00,521,Wunderground v.1.15,2013-04-29 00:09:00,
2013-04-29 10:14:00,73.6,52.7,29.23,ESE,113,0.0,-999.0,48,0.00,,,0.00,521,Wunderground v.1.15,2013-04-29 00:14:00,
2013-04-29 10:19:00,74.9,47.6,29.23,South,180,1.0,-999.0,38,0.00,,,0.00,562,Wunderground v.1.15,2013-04-29 00:19:00,
2013-04-29 10:24:00,74.9,47.6,29.23,South,180,1.0,-999.0,38,0.00,,,0.00,562,Wunderground v.1.15,2013-04-29 00:24:00,
2013-04-29 10:29:00,74.9,47.6,29.23,South,180,1.0,-999.0,38,0.00,,,0.00,562,Wunderground v.1.15,2013-04-29 00:29:00,
2013-04-29 10:34:00,74.9,47.6,29.23,South,180,1.0,-999.0,38,0.00,,,0.00,562,Wunderground v.1.15,2013-04-29 00:34:00,
2013-04-29 10:39:00,74.9,47.6,29.23,South,180,1.0,-999.0,38,0.00,,,0.00,562,Wunderground v.1.15,2013-04-29 00:39:00,
2013-04-29 10:44:00,74.9,47.6,29.23,South,180,1.0,-999.0,38,0.00,,,0.00,562,Wunderground v.1.15,2013-04-29 00:44:00,
2013-04-29 10:49:00,76.2,47.3,29.23,South,180,0.0,-999.0,36,0.00,,,0.00,615,Wunderground v.1.15,2013-04-29 00:49:00,
2013-04-29 10:54:00,76.2,47.3,29.23,South,180,0.0,-999.0,36,0.00,,,0.00,615,Wunderground v.1.15,2013-04-29 00:54:00,
2013-04-29 10:59:00,76.2,47.3,29.23,South,180,0.0,-999.0,36,0.00,,,0.00,615,Wunderground v.1.15,2013-04-29 00:59:00,
2013-04-29 11:04:00,76.2,47.3,29.23,South,180,0.0,-999.0,36,0.00,,,0.00,615,Wunderground v.1.15,2013-04-29 01:04:00,
2013-04-29 11:09:00,76.2,47.3,29.23,South,180,0.0,-999.0,36,0.00,,,0.00,615,Wunderground v.1.15,2013-04-29 01:09:00,
2013-04-29 11:14:00,76.2,47.3,29.23,South,180,0.0,-999.0,36,0.00,,,0.00,615,Wunderground v.1.15,2013-04-29 01:14:00,
2013-04-29 11:19:00,78.4,50.0,29.23,WNW,293,1.0,-999.0,37,0.00,,,0.00,651,Wunderground v.1.15,2013-04-29 01:19:00,
2013-04-29 11:24:00,78.4,50.0,29.23,WNW,293,1.0,-999.0,37,0.00,,,0.00,651,Wunderground v.1.15,2013-04-29 01:24:00,
2013-04-29 11:29:00,78.4,50.0,29.23,WNW,293,1.0,-999.0,37,0.00,,,0.00,651,Wunderground v.1.15,2013-04-29 01:29:00,
2013-04-29 11:34:00,78.4,50.0,29.23,WNW,293,1.0,-999.0,37,0.00,,,0.00,651,Wunderground v.1.15,2013-04-29 01:34:00,
2013-04-29 11:39:00,78.4,50.0,29.23,WNW,293,1.0,-999.0,37,0.00,,,0.00,651,Wunderground v.1.15,2013-04-29 01:39:00,
2013-04-29 11:44:00,78.4,50.0,29.23,WNW,293,1.0,-999.0,37,0.00,,,0.00,651,Wunderground v.1.15,2013-04-29 01:44:00,
2013-04-29 11:49:00,79.4,50.9,29.23,West,270,1.0,-999.0,37,0.00,,,0.00,661,Wunderground v.1.15,2013-04-29 01:49:00,
2013-04-29 11:54:00,79.4,50.9,29.23,West,270,1.0,-999.0,37,0.00,,,0.00,661,Wunderground v.1.15,2013-04-29 01:54:00,
2013-04-29 11:59:00,79.4,50.9,29.23,West,270,1.0,-999.0,37,0.00,,,0.00,661,Wunderground v.1.15,2013-04-29 01:59:00,
2013-04-29 12:04:00,79.4,50.9,29.23,West,270,1.0,-999.0,37,0.00,,,0.00,661,Wunderground v.1.15,2013-04-29 02:04:00,
2013-04-29 12:09:00,79.4,50.9,29.23,West,270,1.0,-999.0,37,0.00,,,0.00,661,Wunderground v.1.15,2013-04-29 02:09:00,
2013-04-29 12:14:00,79.4,50.9,29.23,West,270,1.0,-999.0,37,0.00,,,0.00,661,Wunderground v.1.15,2013-04-29 02:14:00,
2013-04-29 12:19:00,80.5,61.3,29.23,WSW,248,1.0,-999.0,52,0.00,,,0.00,656,Wunderground v.1.15,2013-04-29 02:19:00,
2013-04-29 12:24:00,80.5,61.3,29.23,WSW,248,1.0,-999.0,52,0.00,,,0.00,656,Wunderground v.1.15,2013-04-29 02:24:00,
2013-04-29 12:29:00,78.5,58.9,29.23,SE,139,1.0,1.0,51,0.00,,,0.00,645,Wunderground v.1.15,2013-04-29 02:29:00,
2013-04-29 12:34:00,79.8,60.6,29.23,NE,44,1.0,1.0,52,0.00,,,0.00,640,Wunderground v.1.15,2013-04-29 02:34:00,
2013-04-29 12:39:00,79.4,59.1,29.23,SSW,201,1.0,2.0,50,0.00,,,0.00,636,Wunderground v.1.15,2013-04-29 02:39:00,
2013-04-29 12:44:00,78.5,59.4,29.23,SW,228,1.0,2.0,52,0.00,,,0.00,631,Wunderground v.1.15,2013-04-29 02:44:00,
2013-04-29 12:49:00,79.4,60.8,29.23,SW,232,1.0,1.0,53,0.00,,,0.00,628,Wunderground v.1.15,2013-04-29 02:49:00,
2013-04-29 12:54:00,78.8,61.8,29.23,South,173,1.0,1.0,56,0.00,,,0.00,621,Wunderground v.1.15,2013-04-29 02:54:00,
2013-04-29 12:59:00,79.0,62.0,29.23,SW,225,1.0,-999.0,56,0.00,,,0.00,631,Wunderground v.1.15,2013-04-29 02:59:00,
2013-04-29 13:04:00,78.8,62.3,29.23,SSW,209,1.0,2.0,57,0.00,,,0.00,605,Wunderground v.1.15,2013-04-29 03:04:00,
2013-04-29 13:09:00,78.9,61.9,29.23,SE,144,1.0,2.0,56,0.00,,,0.00,599,Wunderground v.1.15,2013-04-29 03:09:00,
2013-04-29 13:14:00,81.0,62.8,29.23,North,5,1.0,1.0,54,0.00,,,0.00,591,Wunderground v.1.15,2013-04-29 03:14:00,
2013-04-29 13:19:00,80.2,61.5,29.23,NNE,23,1.0,-999.0,53,0.00,,,0.00,577,Wunderground v.1.15,2013-04-29 03:19:00,
2013-04-29 13:24:00,81.0,62.3,29.23,NE,38,1.0,2.0,53,0.00,,,0.00,506,Wunderground v.1.15,2013-04-29 03:24:00,
2013-04-29 13:29:00,81.2,63.0,29.23,NNE,22,1.0,2.0,54,0.00,,,0.00,573,Wunderground v.1.15,2013-04-29 03:29:00,
2013-04-29 13:34:00,80.2,61.5,29.23,NNE,23,1.0,-999.0,53,0.00,,,0.00,577,Wunderground v.1.15,2013-04-29 03:34:00,
2013-04-29 13:39:00,80.4,62.8,29.23,East,101,1.0,1.0,55,0.00,,,0.00,550,Wunderground v.1.15,2013-04-29 03:39:00,
2013-04-29 13:44:00,80.3,63.2,29.23,ESE,123,1.0,1.0,56,0.00,,,0.00,540,Wunderground v.1.15,2013-04-29 03:44:00,
2013-04-29 13:49:00,80.5,63.4,29.23,SE,135,1.0,-999.0,56,0.00,,,0.00,539,Wunderground v.1.15,2013-04-29 03:49:00,
2013-04-29 13:54:00,79.4,63.3,29.23,West,281,1.0,1.0,58,0.00,,,0.00,519,Wunderground v.1.15,2013-04-29 03:54:00,
2013-04-29 13:59:00,80.1,63.5,29.23,ESE,121,1.0,2.0,57,0.00,,,0.00,513,Wunderground v.1.15,2013-04-29 03:59:00,
2013-04-29 14:04:00,78.6,62.6,29.23,WSW,252,1.0,1.0,58,0.00,,,0.00,506,Wunderground v.1.15,2013-04-29 04:04:00,
2013-04-29 14:09:00,78.5,62.5,29.89,South,182,1.0,1.0,58,0.00,,,0.00,496,Wunderground v.1.15,2013-04-29 04:09:00,
2013-04-29 14:14:00,80.5,63.4,29.23,SE,135,1.0,-999.0,56,0.00,,,0.00,539,Wunderground v.1.15,2013-04-29 04:14:00,
2013-04-29 14:19:00,78.3,62.8,29.89,ESE,106,1.0,1.0,59,0.00,,,0.00,475,Wunderground v.1.15,2013-04-29 04:19:00,
2013-04-29 14:24:00,78.4,62.4,29.89,SSE,165,1.0,1.0,58,0.00,,,0.00,461,Wunderground v.1.15,2013-04-29 04:24:00,
2013-04-29 14:29:00,77.2,62.2,29.89,SW,216,1.0,2.0,60,0.00,,,0.00,450,Wunderground v.1.15,2013-04-29 04:29:00,
2013-04-29 14:34:00,78.5,63.5,29.89,SW,225,1.0,-999.0,60,0.00,,,0.00,482,Wunderground v.1.15,2013-04-29 04:34:00,
2013-04-29 14:39:00,76.4,61.5,29.89,SSW,197,2.0,4.0,60,0.00,,,0.00,422,Wunderground v.1.15,2013-04-29 04:39:00,
2013-04-29 14:44:00,78.5,63.5,29.89,SW,225,1.0,-999.0,60,0.00,,,0.00,482,Wunderground v.1.15,2013-04-29 04:44:00,
2013-04-29 14:49:00,75.9,63.3,29.89,SSW,209,1.0,2.0,65,0.00,,,0.00,396,Wunderground v.1.15,2013-04-29 04:49:00,
2013-04-29 14:54:00,75.3,61.8,29.89,SW,227,1.0,1.0,63,0.00,,,0.00,381,Wunderground v.1.15,2013-04-29 04:54:00,
2013-04-29 14:59:00,76.1,62.6,29.89,NNE,16,1.0,1.0,63,0.00,,,0.00,367,Wunderground v.1.15,2013-04-29 04:59:00,
2013-04-29 15:04:00,75.9,62.4,29.89,SW,225,1.0,-999.0,63,0.00,,,0.00,405,Wunderground v.1.15,2013-04-29 05:04:00,
2013-04-29 15:09:00,75.2,63.9,29.89,South,181,1.0,1.0,68,0.00,,,0.00,341,Wunderground v.1.15,2013-04-29 05:09:00,
2013-04-29 15:14:00,74.8,64.4,29.89,SSW,194,1.0,1.0,70,0.00,,,0.00,327,Wunderground v.1.15,2013-04-29 05:14:00,
2013-04-29 15:19:00,74.6,63.8,29.89,ESE,104,1.0,1.0,69,0.00,,,0.00,313,Wunderground v.1.15,2013-04-29 05:19:00,
2013-04-29 15:24:00,75.7,64.8,29.89,South,173,1.0,1.0,69,0.00,,,0.00,299,Wunderground v.1.15,2013-04-29 05:24:00,
2013-04-29 15:29:00,75.3,65.2,29.89,SSW,203,1.0,-999.0,71,0.00,,,0.00,324,Wunderground v.1.15,2013-04-29 05:29:00,
2013-04-29 15:34:00,75.3,64.8,29.89,SSW,211,1.0,1.0,70,0.00,,,0.00,271,Wunderground v.1.15,2013-04-29 05:34:00,
2013-04-29 15:39:00,75.3,65.2,29.89,SSW,203,1.0,-999.0,71,0.00,,,0.00,324,Wunderground v.1.15,2013-04-29 05:39:00,
2013-04-29 15:44:00,74.3,65.5,29.89,SE,133,1.0,1.0,74,0.00,,,0.00,239,Wunderground v.1.15,2013-04-29 05:44:00,
2013-04-29 15:49:00,74.2,65.4,29.89,SSE,165,1.0,1.0,74,0.00,,,0.00,225,Wunderground v.1.15,2013-04-29 05:49:00,
2013-04-29 15:54:00,74.7,65.9,29.89,NW,305,0.0,1.0,74,0.00,,,0.00,209,Wunderground v.1.15,2013-04-29 05:54:00,
2013-04-29 15:59:00,74.6,65.8,29.89,SSW,203,1.0,-999.0,74,0.00,,,0.00,237,Wunderground v.1.15,2013-04-29 05:59:00,
2013-04-29 16:04:00,74.0,65.6,29.89,SSW,201,0.0,1.0,75,0.00,,,0.00,179,Wunderground v.1.15,2013-04-29 06:04:00,
2013-04-29 16:09:00,73.2,65.6,29.89,ENE,61,1.0,1.0,77,0.00,,,0.00,163,Wunderground v.1.15,2013-04-29 06:09:00,
2013-04-29 16:14:00,73.2,65.9,29.89,East,86,1.0,1.0,78,0.00,,,0.00,148,Wunderground v.1.15,2013-04-29 06:14:00,
2013-04-29 16:19:00,73.2,66.3,29.89,East,90,1.0,-999.0,79,0.00,,,0.00,146,Wunderground v.1.15,2013-04-29 06:19:00,
2013-04-29 16:24:00,72.7,65.4,29.89,South,184,1.0,1.0,78,0.00,,,0.00,118,Wunderground v.1.15,2013-04-29 06:24:00,
2013-04-29 16:29:00,72.5,65.6,29.89,South,181,1.0,1.0,79,0.00,,,0.00,104,Wunderground v.1.15,2013-04-29 06:29:00,
2013-04-29 16:34:00,73.2,66.3,29.89,East,90,1.0,-999.0,79,0.00,,,0.00,146,Wunderground v.1.15,2013-04-29 06:34:00,
2013-04-29 16:39:00,72.3,65.4,32.49,WNW,296,0.0,2.0,79,0.00,,,0.00,69,Wunderground v.1.15,2013-04-29 06:39:00,
2013-04-29 16:44:00,72.3,65.8,32.49,WNW,289,0.0,0.0,80,0.00,,,0.00,51,Wunderground v.1.15,2013-04-29 06:44:00,
2013-04-29 16:49:00,71.9,66.5,32.49,West,270,0.0,-999.0,83,0.00,,,0.00,50,Wunderground v.1.15,2013-04-29 06:49:00,
2013-04-29 16:54:00,71.2,65.4,32.49,West,280,0.0,0.0,82,0.00,,,0.00,19,Wunderground v.1.15,2013-04-29 06:54:00,
2013-04-29 16:59:00,70.8,65.4,32.49,WSW,248,0.0,0.0,83,0.00,,,0.00,14,Wunderground v.1.15,2013-04-29 06:59:00,
2013-04-29 17:04:00,70.7,65.3,32.49,WSW,248,0.0,0.0,83,0.00,,,0.00,9,Wunderground v.1.15,2013-04-29 07:04:00,
2013-04-29 17:09:00,70.4,65.3,32.49,WSW,248,0.0,0.0,84,0.00,,,0.00,7,Wunderground v.1.15,2013-04-29 07:09:00,
2013-04-29 17:14:00,70.2,65.5,32.49,WSW,248,0.0,0.0,85,0.00,,,0.00,5,Wunderground v.1.15,2013-04-29 07:14:00,
2013-04-29 17:19:00,70.1,66.0,32.49,WSW,248,0.0,-999.0,87,0.00,,,0.00,4,Wunderground v.1.15,2013-04-29 07:19:00,
2013-04-29 17:24:00,69.6,65.2,32.49,WSW,248,0.0,0.0,86,0.00,,,0.00,0,Wunderground v.1.15,2013-04-29 07:24:00,
2013-04-29 17:29:00,69.5,65.5,32.49,WSW,248,0.0,0.0,87,0.00,,,0.00,0,Wunderground v.1.15,2013-04-29 07:29:00,
2013-04-29 17:34:00,70.1,66.0,32.49,WSW,248,0.0,-999.0,87,0.00,,,0.00,4,Wunderground v.1.15,2013-04-29 07:34:00,
2013-04-29 17:39:00,68.9,65.2,32.49,WSW,248,0.0,0.0,88,0.00,,,0.00,0,Wunderground v.1.15,2013-04-29 07:39:00,
2013-04-29 17:44:00,68.6,64.9,32.49,WSW,248,0.0,0.0,88,0.00,,,0.00,0,Wunderground v.1.15,2013-04-29 07:44:00,
2013-04-29 17:49:00,68.7,65.3,32.49,WSW,248,0.0,-999.0,89,0.00,,,0.00,0,Wunderground v.1.15,2013-04-29 07:49:00,
2013-04-29 17:54:00,68.1,64.7,32.49,WSW,248,0.0,0.0,89,0.00,,,0.00,0,Wunderground v.1.15,2013-04-29 07:54:00,
2013-04-29 17:59:00,68.1,64.7,32.49,WSW,248,0.0,0.0,89,0.00,,,0.00,0,Wunderground v.1.15,2013-04-29 07:59:00,
2013-04-29 18:04:00,67.9,64.5,32.49,WSW,248,0.0,0.0,89,0.00,,,0.00,0,Wunderground v.1.15,2013-04-29 08:04:00,
2013-04-29 18:09:00,67.8,64.8,32.49,WSW,248,0.0,0.0,90,0.00,,,0.00,0,Wunderground v.1.15,2013-04-29 08:09:00,
2013-04-29 18:14:00,68.7,65.3,32.49,WSW,248,0.0,-999.0,89,0.00,,,0.00,0,Wunderground v.1.15,2013-04-29 08:14:00,
2013-04-29 18:19:00,67.9,64.9,32.49,WSW,248,0.0,0.0,90,0.00,,,0.00,0,Wunderground v.1.15,2013-04-29 08:19:00,
2013-04-29 18:24:00,67.7,65.0,32.49,WSW,248,0.0,0.0,91,0.00,,,0.00,0,Wunderground v.1.15,2013-04-29 08:24:00,
2013-04-29 18:29:00,67.5,64.5,32.49,WSW,248,0.0,0.0,90,0.00,,,0.00,0,Wunderground v.1.15,2013-04-29 08:29:00,
2013-04-29 18:34:00,67.8,64.8,32.49,N/A,-737280,0.0,-999.0,90,0.00,,,0.00,0,Wunderground v.1.15,2013-04-29 08:34:00,
2013-04-29 18:39:00,67.8,65.4,32.49,WSW,248,0.0,0.0,92,0.00,,,0.00,0,Wunderground v.1.15,2013-04-29 08:39:00,
2013-04-29 18:44:00,68.0,65.6,32.49,WSW,248,0.0,0.0,92,0.00,,,0.00,0,Wunderground v.1.15,2013-04-29 08:44:00,
2013-04-29 18:49:00,67.7,65.3,32.49,WSW,248,0.0,-999.0,92,0.00,,,0.00,0,Wunderground v.1.15,2013-04-29 08:49:00,
2013-04-29 18:54:00,67.7,65.0,32.49,WSW,248,0.0,0.0,91,0.00,,,0.00,0,Wunderground v.1.15,2013-04-29 08:54:00,
2013-04-29 18:59:00,67.6,65.2,32.49,WSW,248,0.0,0.0,92,0.00,,,0.00,0,Wunderground v.1.15,2013-04-29 08:59:00,
2013-04-29 19:04:00,67.6,65.2,32.49,WSW,248,0.0,0.0,92,0.00,,,0.00,0,Wunderground v.1.15,2013-04-29 09:04:00,
2013-04-29 19:09:00,67.7,65.3,32.49,WSW,248,0.0,-999.0,92,0.00,,,0.00,0,Wunderground v.1.15,2013-04-29 09:09:00,
2013-04-29 19:14:00,67.7,65.3,32.49,WSW,248,0.0,0.0,92,0.00,,,0.00,0,Wunderground v.1.15,2013-04-29 09:14:00,
2013-04-29 19:19:00,67.7,65.6,32.49,WSW,248,0.0,0.0,93,0.00,,,0.00,0,Wunderground v.1.15,2013-04-29 09:19:00,
2013-04-29 19:24:00,67.8,65.7,32.49,WSW,248,0.0,0.0,93,0.00,,,0.00,0,Wunderground v.1.15,2013-04-29 09:24:00,
2013-04-29 19:29:00,67.7,65.6,32.49,N/A,-737280,0.0,-999.0,93,0.00,,,0.00,0,Wunderground v.1.15,2013-04-29 09:29:00,
2013-04-29 19:34:00,67.5,65.4,32.49,WSW,248,0.0,0.0,93,0.00,,,0.00,0,Wunderground v.1.15,2013-04-29 09:34:00,
2013-04-29 19:39:00,67.7,65.6,32.49,N/A,-737280,0.0,-999.0,93,0.00,,,0.00,0,Wunderground v.1.15,2013-04-29 09:39:00,
2013-04-29 19:44:00,67.0,64.9,32.49,WSW,248,0.0,0.0,93,0.00,,,0.00,0,Wunderground v.1.15,2013-04-29 09:44:00,
2013-04-29 19:49:00,66.9,64.8,32.49,WSW,248,0.0,0.0,93,0.00,,,0.00,0,Wunderground v.1.15,2013-04-29 09:49:00,
2013-04-29 19:54:00,66.9,64.8,32.49,WSW,248,0.0,0.0,93,0.00,,,0.00,0,Wunderground v.1.15,2013-04-29 09:54:00,
2013-04-29 19:59:00,66.8,64.7,32.49,WSW,248,0.0,0.0,93,0.00,,,0.00,0,Wunderground v.1.15,2013-04-29 09:59:00,
2013-04-29 20:04:00,67.1,65.0,32.49,N/A,-737280,0.0,-999.0,93,0.00,,,0.00,0,Wunderground v.1.15,2013-04-29 10:04:00,
2013-04-29 20:09:00,66.2,64.1,32.49,WSW,248,0.0,0.0,93,0.00,,,0.00,0,Wunderground v.1.15,2013-04-29 10:09:00,
2013-04-29 20:14:00,65.7,63.6,32.49,WSW,248,0.0,0.0,93,0.00,,,0.00,0,Wunderground v.1.15,2013-04-29 10:14:00,
2013-04-29 20:19:00,65.8,63.7,32.49,N/A,-737280,0.0,-999.0,93,0.00,,,0.00,0,Wunderground v.1.15,2013-04-29 10:19:00,
2013-04-29 20:24:00,65.2,63.1,32.49,WSW,248,0.0,0.0,93,0.00,,,0.00,0,Wunderground v.1.15,2013-04-29 10:24:00,
2013-04-29 20:29:00,65.2,63.1,32.49,WSW,248,0.0,0.0,93,0.00,,,0.00,0,Wunderground v.1.15,2013-04-29 10:29:00,
2013-04-29 20:34:00,65.8,63.7,32.49,N/A,-737280,0.0,-999.0,93,0.00,,,0.00,0,Wunderground v.1.15,2013-04-29 10:34:00,
2013-04-29 20:39:00,65.0,63.2,32.49,WSW,248,0.0,1.0,94,0.00,,,0.00,0,Wunderground v.1.15,2013-04-29 10:39:00,
2013-04-29 20:44:00,64.9,63.1,32.49,WSW,248,1.0,1.0,94,0.00,,,0.00,0,Wunderground v.1.15,2013-04-29 10:44:00,
2013-04-29 20:49:00,64.8,63.0,32.49,WSW,248,1.0,1.0,94,0.00,,,0.00,0,Wunderground v.1.15,2013-04-29 10:49:00,
2013-04-29 20:54:00,64.9,63.1,32.49,WSW,248,0.0,-999.0,94,0.00,,,0.00,0,Wunderground v.1.15,2013-04-29 10:54:00,
2013-04-29 20:59:00,64.8,63.0,32.49,WSW,248,0.0,0.0,94,0.00,,,0.00,0,Wunderground v.1.15,2013-04-29 10:59:00,
2013-04-29 21:04:00,64.7,62.9,32.49,WSW,248,0.0,0.0,94,0.00,,,0.00,0,Wunderground v.1.15,2013-04-29 11:04:00,
2013-04-29 21:09:00,64.8,63.0,32.49,WSW,248,0.0,0.0,94,0.00,,,0.00,0,Wunderground v.1.15,2013-04-29 11:09:00,
2013-04-29 21:14:00,64.7,62.9,32.49,WSW,248,0.0,0.0,94,0.00,,,0.00,0,Wunderground v.1.15,2013-04-29 11:14:00,
2013-04-29 21:19:00,64.8,63.3,32.49,N/A,-737280,0.0,-999.0,95,0.00,,,0.00,0,Wunderground v.1.15,2013-04-29 11:19:00,
2013-04-29 21:24:00,64.9,63.4,32.49,WSW,248,0.0,0.0,95,0.00,,,0.00,0,Wunderground v.1.15,2013-04-29 11:24:00,
2013-04-29 21:29:00,65.3,63.8,32.49,WSW,248,0.0,0.0,95,0.00,,,0.00,0,Wunderground v.1.15,2013-04-29 11:29:00,
2013-04-29 21:34:00,64.8,63.3,32.49,N/A,-737280,0.0,-999.0,95,0.00,,,0.00,0,Wunderground v.1.15,2013-04-29 11:34:00,
2013-04-29 21:39:00,65.5,64.0,32.49,WSW,248,0.0,0.0,95,0.00,,,0.00,0,Wunderground v.1.15,2013-04-29 11:39:00,
2013-04-29 21:44:00,64.8,63.3,32.49,N/A,-737280,0.0,-999.0,95,0.00,,,0.00,0,Wunderground v.1.15,2013-04-29 11:44:00,
2013-04-29 21:49:00,65.7,64.2,32.49,WSW,248,0.0,0.0,95,0.00,,,0.00,0,Wunderground v.1.15,2013-04-29 11:49:00,
2013-04-29 21:54:00,65.7,64.2,32.49,WSW,248,0.0,0.0,95,0.00,,,0.00,0,Wunderground v.1.15,2013-04-29 11:54:00,
2013-04-29 21:59:00,65.6,64.1,32.49,WSW,248,0.0,-999.0,95,0.00,,,0.00,0,Wunderground v.1.15,2013-04-29 11:59:00,
2013-04-29 22:04:00,66.0,64.5,32.49,WSW,248,0.0,0.0,95,0.00,,,0.00,0,Wunderground v.1.15,2013-04-29 12:04:00,
2013-04-29 22:09:00,66.0,64.5,32.49,WSW,248,0.0,0.0,95,0.00,,,0.00,0,Wunderground v.1.15,2013-04-29 12:09:00,
2013-04-29 22:14:00,66.0,64.5,32.49,WSW,248,0.0,0.0,95,0.00,,,0.00,0,Wunderground v.1.15,2013-04-29 12:14:00,
2013-04-29 22:19:00,66.0,64.5,32.49,WSW,248,0.0,-999.0,95,0.00,,,0.00,0,Wunderground v.1.15,2013-04-29 12:19:00,
2013-04-29 22:24:00,66.1,64.6,32.49,WSW,248,0.0,0.0,95,0.00,,,0.00,0,Wunderground v.1.15,2013-04-29 12:24:00,
2013-04-29 22:29:00,66.1,64.6,32.49,WSW,248,0.0,0.0,95,0.00,,,0.00,0,Wunderground v.1.15,2013-04-29 12:29:00,
2013-04-29 22:34:00,66.0,64.5,32.49,WSW,248,0.0,-999.0,95,0.00,,,0.00,0,Wunderground v.1.15,2013-04-29 12:34:00,
2013-04-29 22:39:00,66.0,64.5,32.49,WSW,248,0.0,0.0,95,0.00,,,0.00,0,Wunderground v.1.15,2013-04-29 12:39:00,
2013-04-29 22:44:00,66.1,64.6,32.49,WSW,248,0.0,0.0,95,0.00,,,0.00,0,Wunderground v.1.15,2013-04-29 12:44:00,
2013-04-29 22:49:00,66.2,65.0,32.49,WSW,248,0.0,0.0,96,0.00,,,0.00,0,Wunderground v.1.15,2013-04-29 12:49:00,
2013-04-29 22:54:00,66.1,64.6,32.49,WSW,248,0.0,-999.0,95,0.00,,,0.00,0,Wunderground v.1.15,2013-04-29 12:54:00,
2013-04-29 22:59:00,66.2,64.7,32.49,WSW,242,0.0,0.0,95,0.00,,,0.00,0,Wunderground v.1.15,2013-04-29 12:59:00,
2013-04-29 23:04:00,66.2,65.0,32.49,SW,219,0.0,0.0,96,0.00,,,0.00,0,Wunderground v.1.15,2013-04-29 13:04:00,
2013-04-29 23:09:00,66.2,65.0,32.49,SW,222,1.0,2.0,96,0.00,,,0.00,0,Wunderground v.1.15,2013-04-29 13:09:00,
2013-04-29 23:14:00,66.1,64.6,32.49,WSW,248,0.0,-999.0,95,0.00,,,0.00,0,Wunderground v.1.15,2013-04-29 13:14:00,
2013-04-29 23:19:00,66.1,64.9,32.49,SSW,207,2.0,3.0,96,0.00,,,0.00,0,Wunderground v.1.15,2013-04-29 13:19:00,
2013-04-29 23:24:00,66.0,64.8,32.49,SW,221,2.0,2.0,96,0.00,,,0.00,0,Wunderground v.1.15,2013-04-29 13:24:00,
2013-04-29 23:29:00,66.0,64.8,32.49,SW,215,2.0,2.0,96,0.00,,,0.00,0,Wunderground v.1.15,2013-04-29 13:29:00,
2013-04-29 23:34:00,66.1,64.9,32.49,SW,225,1.0,-999.0,96,0.00,,,0.00,0,Wunderground v.1.15,2013-04-29 13:34:00,
2013-04-29 23:39:00,66.1,64.9,32.49,SW,232,1.0,2.0,96,0.00,,,0.00,0,Wunderground v.1.15,2013-04-29 13:39:00,
2013-04-29 23:44:00,66.1,64.9,32.49,SW,225,1.0,-999.0,96,0.00,,,0.00,0,Wunderground v.1.15,2013-04-29 13:44:00,
2013-04-29 23:49:00,66.1,64.9,32.49,SSW,200,1.0,2.0,96,0.00,,,0.00,0,Wunderground v.1.15,2013-04-29 13:49:00,
2013-04-29 23:54:00,66.2,65.0,32.49,SSW,202,1.0,1.0,96,0.00,,,0.00,0,Wunderground v.1.15,2013-04-29 13:54:00,
2013-04-29 23:59:00,66.2,65.0,32.49,SSW,209,1.0,1.0,96,0.00,,,0.00,0,Wunderground v.1.15,2013-04-29 13:59:00,